Луговатка

Россия / Красноярский край     59°05′04″N   89°05′49″E
темп.,
°C
ветер,
м/с
пор.,
м/с
влажн.,
%
обл.,
%
осадки,
мм/ч
давл.,
гПа
погр.,
м
7 мая, пт
пт701:00+8юв61596100 0.0 1004380
04:00+6юв61595100 0.1 1002376
07:00+8юв51393100 0.2 1000443
10:00+10ююв3791100 1.1 1000589
13:00+6зсз5119394 2.4 1003435
16:00+13зсз585456 0.0 10041900
19:00+11зсз486144 0.2 1005945
22:00+7з3118037 0.3 1008329
8 мая, сб
сб801:00+5з4118885 0.3 1009449
04:00+4з4128633 0.0 1010472
07:00+5зюз497898 0.0 1011982
10:00+8юз4866100 0.1 10091205
13:00+6зюз51083100 1.2 10091131
16:00+4зсз4789100 0.9 1010754
19:00+5зсз4879100 1.4 10111001
22:00+3зсз3981100 0.3 1012480
9 мая, вс
вс901:00+1зсз4118938 0.3 1012428
04:00+2сз51195100 0.3 1013817
07:00+3ссз499198 0.3 1016815
10:00+5ссз5874100 0.1 10171122
13:00+5ссз4675100 0.1 1019955
16:00+6ссз3669100 0.0 10211098
19:00+6сз2673100 0.1 1022458
22:00+4ссз2583100 0.0 1023157
10 мая, пн
пн1001:00+4ссз248599 0.0 1023113
04:00+3с2392100 0.0 102383
07:00+4ссв2591100 0.0 1023205
10:00+7ссв237296 0.1 1023597
13:00+9ссв2361100 0.2 10211006
16:00+10ссв3456100 0.0 10201019
19:00+11с24585 0.0 1020984
22:00+6ссв228473 0.1 101932
11 мая, вт
вт1101:00+6всв398131 0.1 1019243
04:00+3св27940 0.0 1019135
07:00+6св38804 0.0 1019246
10:00+12св46535 0.0 10191026
13:00+14всв4542100 0.0 10182229
16:00+14св344493 0.0 10191720
19:00+13всв344743 0.0 10191170
22:00+7всв25735 0.0 102182